Date,Installs,Update checks
2016-09-29,0,0
2016-09-30,0,0
2016-10-01,0,0
2016-10-02,0,0
2016-10-03,0,0
2016-10-04,0,0
2016-10-05,0,0
2016-10-06,0,0
2016-10-07,0,0
2016-10-08,0,0
2016-10-09,0,0
2016-10-10,0,0
2016-10-11,0,0
2016-10-12,0,0
2016-10-13,0,0
2016-10-14,0,0
2016-10-15,0,0
2016-10-16,1,3
2016-10-17,0,5
2016-10-18,0,3
2016-10-19,1,2
2016-10-20,0,4
2016-10-21,0,3
2016-10-22,1,3
2016-10-23,1,5
2016-10-24,1,3
2016-10-25,0,7
2016-10-26,0,6
2016-10-27,0,3
2016-10-28,0,5
2016-10-29,0,3
2016-10-30,0,4
2016-10-31,0,5
2016-11-01,0,6
2016-11-02,1,7
2016-11-03,1,2
2016-11-04,0,9
2016-11-05,0,5
2016-11-06,0,7
2016-11-07,1,9
2016-11-08,0,6
2016-11-09,0,4
2016-11-10,0,8
2016-11-11,0,5
2016-11-12,0,9
2016-11-13,0,5
2016-11-14,0,9
2016-11-15,1,5
2016-11-16,1,7
2016-11-17,0,8
2016-11-18,0,7
2016-11-19,0,8
2016-11-20,0,5
2016-11-21,0,8
2016-11-22,0,6
2016-11-23,1,9
2016-11-24,0,6
2016-11-25,0,10
2016-11-26,0,5
2016-11-27,0,11
2016-11-28,0,8
2016-11-29,0,9
2016-11-30,1,7
2016-12-01,0,10
2016-12-02,1,6
2016-12-03,0,12
2016-12-04,4,8
2016-12-05,1,10
2016-12-06,0,9
2016-12-07,0,7
2016-12-08,2,12
2016-12-09,0,8
2016-12-10,0,9
2016-12-11,0,8
2016-12-12,1,9
2016-12-13,0,11
2016-12-14,0,7
2016-12-15,0,12
2016-12-16,0,10
2016-12-17,0,9
2016-12-18,0,12
2016-12-19,0,5
2016-12-20,0,10
2016-12-21,0,7
2016-12-22,0,8
2016-12-23,0,10
2016-12-24,0,10
2016-12-25,0,9
2016-12-26,0,8
2016-12-27,1,11
2016-12-28,1,7
2016-12-29,1,9
2016-12-30,0,8
2016-12-31,0,6
2017-01-01,0,9
2017-01-02,0,7
2017-01-03,1,8
2017-01-04,0,7
2017-01-05,1,8
2017-01-06,0,9
2017-01-07,0,10
2017-01-08,0,5
2017-01-09,1,10
2017-01-10,0,7
2017-01-11,0,11
2017-01-12,0,7
2017-01-13,0,10
2017-01-14,0,7
2017-01-15,1,12
2017-01-16,0,10
2017-01-17,0,9
2017-01-18,2,10
2017-01-19,0,7
2017-01-20,0,12
2017-01-21,0,12
2017-01-22,0,9
2017-01-23,0,10
2017-01-24,0,11
2017-01-25,0,7
2017-01-26,0,14
2017-01-27,0,6
2017-01-28,0,12
2017-01-29,0,4
2017-01-30,0,13
2017-01-31,0,6
2017-02-01,0,18
2017-02-02,0,7
2017-02-03,0,14
2017-02-04,1,10
2017-02-05,0,12
2017-02-06,0,10
2017-02-07,0,14
2017-02-08,0,10
2017-02-09,0,15
2017-02-10,0,11
2017-02-11,0,11
2017-02-12,0,11
2017-02-13,0,9
2017-02-14,0,11
2017-02-15,0,16
2017-02-16,0,10
2017-02-17,0,15
2017-02-18,0,10
2017-02-19,0,10
2017-02-20,0,10
2017-02-21,0,12
2017-02-22,0,13
2017-02-23,0,13
2017-02-24,0,10
2017-02-25,0,12
2017-02-26,0,9
2017-02-27,1,13
2017-02-28,0,10
2017-03-01,0,10
2017-03-02,1,12
2017-03-03,0,9
2017-03-04,0,14
2017-03-05,0,9
2017-03-06,1,12
2017-03-07,1,13
2017-03-08,1,14
2017-03-09,2,18
2017-03-10,0,15
2017-03-11,0,15
2017-03-12,0,16
2017-03-13,0,21
2017-03-14,0,17
2017-03-15,2,19
2017-03-16,1,14
2017-03-17,0,18
2017-03-18,2,15
2017-03-19,1,16
2017-03-20,3,21
2017-03-21,0,19
2017-03-22,0,16
2017-03-23,2,20
2017-03-24,0,20
2017-03-25,0,20
2017-03-26,0,19
2017-03-27,0,19
2017-03-28,0,25
2017-03-29,0,20
2017-03-30,0,19
2017-03-31,0,15
2017-04-01,0,18
2017-04-02,0,16
2017-04-03,1,17
2017-04-04,2,16
2017-04-05,0,20
2017-04-06,0,18
2017-04-07,0,21
2017-04-08,0,15
2017-04-09,0,21
2017-04-10,1,18
2017-04-11,1,21
2017-04-12,0,13
2017-04-13,2,24
2017-04-14,1,16
2017-04-15,1,21
2017-04-16,0,19
2017-04-17,3,22
2017-04-18,0,22
2017-04-19,1,24
2017-04-20,0,21
2017-04-21,0,27
2017-04-22,0,17
2017-04-23,0,26
2017-04-24,0,24
2017-04-25,0,29
2017-04-26,0,17
2017-04-27,0,29
2017-04-28,0,17
2017-04-29,0,26
2017-04-30,1,15
2017-05-01,0,20
2017-05-02,1,21
2017-05-03,1,22
2017-05-04,0,23
2017-05-05,1,25
2017-05-06,0,21
2017-05-07,0,30
2017-05-08,1,22
2017-05-09,0,22
2017-05-10,2,16
2017-05-11,0,34
2017-05-12,0,19
2017-05-13,0,24
2017-05-14,0,22
2017-05-15,0,31
2017-05-16,1,19
2017-05-17,3,32
2017-05-18,0,24
2017-05-19,0,31
2017-05-20,0,16
2017-05-21,0,28
2017-05-22,0,28
2017-05-23,0,21
2017-05-24,0,30
2017-05-25,0,22
2017-05-26,1,18
2017-05-27,0,25
2017-05-28,0,19
2017-05-29,0,28
2017-05-30,0,27
2017-05-31,1,25
2017-06-01,1,25
2017-06-02,1,26
2017-06-03,0,23
2017-06-04,0,21
2017-06-05,0,23
2017-06-06,0,30
2017-06-07,1,24
2017-06-08,1,25
2017-06-09,1,25
2017-06-10,1,30
2017-06-11,0,23
2017-06-12,0,26
2017-06-13,0,24
2017-06-14,0,34
2017-06-15,1,24
2017-06-16,1,31
2017-06-17,1,22
2017-06-18,1,26
2017-06-19,1,32
2017-06-20,0,26
2017-06-21,1,34
2017-06-22,0,26
2017-06-23,0,26
2017-06-24,0,27
2017-06-25,0,29
2017-06-26,0,22
2017-06-27,0,30
2017-06-28,1,26
2017-06-29,0,32
2017-06-30,0,29
2017-07-01,0,26
2017-07-02,0,23
2017-07-03,0,29
2017-07-04,0,23
2017-07-05,1,33
2017-07-06,2,25
2017-07-07,0,38
2017-07-08,0,27
2017-07-09,0,31
2017-07-10,0,28
2017-07-11,0,26
2017-07-12,0,33
2017-07-13,0,22
2017-07-14,0,35
2017-07-15,0,24
2017-07-16,0,36
2017-07-17,0,21
2017-07-18,1,30
2017-07-19,0,25
2017-07-20,0,29
2017-07-21,0,40
2017-07-22,0,20
2017-07-23,1,35
2017-07-24,1,26
2017-07-25,0,40
2017-07-26,0,27
2017-07-27,1,36
2017-07-28,0,32
2017-07-29,0,37
2017-07-30,1,32
2017-07-31,1,34
2017-08-01,0,31
2017-08-02,0,37
2017-08-03,0,37
2017-08-04,0,31
2017-08-05,1,29
2017-08-06,1,36
2017-08-07,2,38
2017-08-08,0,43
2017-08-09,0,34
2017-08-10,6,45
2017-08-11,0,40
2017-08-12,2,42
2017-08-13,1,44
2017-08-14,0,43
2017-08-15,2,49
2017-08-16,0,42
2017-08-17,0,43
2017-08-18,0,46
2017-08-19,0,39
2017-08-20,0,42
2017-08-21,0,42
2017-08-22,0,48
2017-08-23,0,31
2017-08-24,1,38
2017-08-25,0,40
2017-08-26,2,40
2017-08-27,1,43
2017-08-28,0,44
2017-08-29,0,46
2017-08-30,0,48
2017-08-31,1,41
2017-09-01,1,45
2017-09-02,0,39
2017-09-03,0,40
2017-09-04,0,40
2017-09-05,0,42
2017-09-06,0,35
2017-09-07,3,40
2017-09-08,0,37
2017-09-09,0,39
2017-09-10,0,39
2017-09-11,0,42
2017-09-12,0,37
2017-09-13,1,38
2017-09-14,1,45
2017-09-15,0,42
2017-09-16,1,39
2017-09-17,0,36
2017-09-18,0,37
2017-09-19,0,43
2017-09-20,0,37
2017-09-21,0,43
2017-09-22,1,37
2017-09-23,0,46
2017-09-24,0,41
2017-09-25,0,37
2017-09-26,0,36
2017-09-27,0,41
2017-09-28,0,43
2017-09-29,1,39
2017-09-30,0,39
2017-10-01,0,37
2017-10-02,0,41
2017-10-03,0,42
2017-10-04,0,41
2017-10-05,0,37
2017-10-06,0,37
2017-10-07,2,38
2017-10-08,0,40
2017-10-09,2,35
2017-10-10,0,35
2017-10-11,0,41
2017-10-12,0,43
2017-10-13,0,40
2017-10-14,0,35
2017-10-15,0,45
2017-10-16,0,27
2017-10-17,0,42
2017-10-18,1,41
2017-10-19,0,33
2017-10-20,0,41
2017-10-21,2,43
2017-10-22,1,39
2017-10-23,0,29
2017-10-24,0,44
2017-10-25,1,42
2017-10-26,0,39
2017-10-27,1,37
2017-10-28,1,36
2017-10-29,0,39
2017-10-30,3,49
2017-10-31,1,48
2017-11-01,0,46
2017-11-02,0,41
2017-11-03,3,49
2017-11-04,3,38
2017-11-05,1,43
2017-11-06,0,34
2017-11-07,1,44
2017-11-08,1,40
2017-11-09,1,52
2017-11-10,0,45
2017-11-11,1,48
2017-11-12,0,49
2017-11-13,0,47
2017-11-14,1,46
2017-11-15,1,46
2017-11-16,1,47
2017-11-17,0,42
2017-11-18,0,48
2017-11-19,2,45
2017-11-20,0,48
2017-11-21,1,48
2017-11-22,0,46
2017-11-23,0,39
2017-11-24,0,43
2017-11-25,2,44
2017-11-26,1,41
2017-11-27,0,55
2017-11-28,2,38
2017-11-29,0,52
2017-11-30,0,51
2017-12-01,0,40
2017-12-02,0,50
2017-12-03,1,43
2017-12-04,0,49
2017-12-05,0,52
2017-12-06,1,43
2017-12-07,0,51
2017-12-08,0,42
2017-12-09,0,49
2017-12-10,1,46
2017-12-11,0,49
2017-12-12,0,43
2017-12-13,0,52
2017-12-14,1,40
2017-12-15,0,53
2017-12-16,1,46
2017-12-17,0,43
2017-12-18,1,49
2017-12-19,0,47
2017-12-20,0,56
2017-12-21,0,44
2017-12-22,1,45
2017-12-23,3,41
2017-12-24,2,45
2017-12-25,0,42
2017-12-26,0,44
2017-12-27,1,39
2017-12-28,0,42
2017-12-29,0,43
2017-12-30,0,49
2017-12-31,0,44
2018-01-01,0,47
2018-01-02,0,47
2018-01-03,0,46
2018-01-04,1,52
2018-01-05,0,43
2018-01-06,0,48
2018-01-07,0,43
2018-01-08,1,51
2018-01-09,0,50
2018-01-10,0,52
2018-01-11,0,45
2018-01-12,1,45
2018-01-13,0,43
2018-01-14,1,54
2018-01-15,1,46
2018-01-16,2,46
2018-01-17,0,58
2018-01-18,0,32
2018-01-19,0,50
2018-01-20,1,38
2018-01-21,1,45
2018-01-22,0,50
2018-01-23,0,40
2018-01-24,0,52
2018-01-25,1,48
2018-01-26,1,50
2018-01-27,0,48
2018-01-28,0,53
2018-01-29,0,50
2018-01-30,1,49
2018-01-31,0,48
2018-02-01,0,58
2018-02-02,0,48
2018-02-03,0,55
2018-02-04,1,39
2018-02-05,0,56
2018-02-06,0,46
2018-02-07,0,54
2018-02-08,0,39
2018-02-09,0,51
2018-02-10,0,56
2018-02-11,0,47
2018-02-12,0,42
2018-02-13,0,49
2018-02-14,0,48
2018-02-15,0,54
2018-02-16,1,49
2018-02-17,2,51
2018-02-18,2,49
2018-02-19,0,50
2018-02-20,1,57
2018-02-21,1,51
2018-02-22,0,53
2018-02-23,1,50
2018-02-24,3,56
2018-02-25,2,38
2018-02-26,0,40
2018-02-27,0,43
2018-02-28,0,40
2018-03-01,0,52
2018-03-02,0,38
2018-03-03,0,45
2018-03-04,0,41
2018-03-05,0,43
2018-03-06,1,39
2018-03-07,0,41
2018-03-08,0,39
2018-03-09,0,43
2018-03-10,1,43
2018-03-11,0,43
2018-03-12,1,46
2018-03-13,0,51
2018-03-14,1,49
2018-03-15,1,40
2018-03-16,0,52
2018-03-17,0,40
2018-03-18,0,48
2018-03-19,1,40
2018-03-20,0,45
2018-03-21,0,42
2018-03-22,0,50
2018-03-23,0,45
2018-03-24,0,47
2018-03-25,0,49
2018-03-26,0,47
2018-03-27,1,43
2018-03-28,1,53
2018-03-29,0,49
2018-03-30,0,41
2018-03-31,0,41
2018-04-01,0,45
2018-04-02,1,44
2018-04-03,0,49
2018-04-04,0,41
2018-04-05,0,49
2018-04-06,0,40
2018-04-07,1,53
2018-04-08,3,46
2018-04-09,0,53
2018-04-10,3,54
2018-04-11,1,51
2018-04-12,1,55
2018-04-13,2,47
2018-04-14,2,43
2018-04-15,0,49
2018-04-16,0,58
2018-04-17,2,50
2018-04-18,0,57
2018-04-19,0,57
2018-04-20,0,50
2018-04-21,1,48
2018-04-22,0,57
2018-04-23,0,50
2018-04-24,0,56
2018-04-25,0,48
2018-04-26,0,50
2018-04-27,0,45
2018-04-28,0,53
2018-04-29,0,47
2018-04-30,0,45
2018-05-01,0,52
2018-05-02,1,60
2018-05-03,0,50
2018-05-04,0,51
2018-05-05,0,51
2018-05-06,1,57
2018-05-07,0,46
2018-05-08,1,50
2018-05-09,0,64
2018-05-10,0,52
2018-05-11,1,63
2018-05-12,0,48
2018-05-13,1,57
2018-05-14,0,55
2018-05-15,0,52
2018-05-16,0,60
2018-05-17,0,51
2018-05-18,0,58
2018-05-19,0,25
2018-05-20,0,60
2018-05-21,0,58
2018-05-22,1,51
2018-05-23,1,49
2018-05-24,3,60
2018-05-25,0,56
2018-05-26,0,54
2018-05-27,0,48
2018-05-28,0,63
2018-05-29,1,53
2018-05-30,0,56
2018-05-31,0,51
2018-06-01,0,56
2018-06-02,0,38
2018-06-03,0,45
2018-06-04,0,39
2018-06-05,0,38
2018-06-06,0,42
2018-06-07,0,44
2018-06-08,0,35
2018-06-09,0,39
2018-06-10,0,37
2018-06-11,0,37
2018-06-12,1,35
2018-06-13,1,50
2018-06-14,0,30
2018-06-15,0,43
2018-06-16,1,41
2018-06-17,0,34
2018-06-18,0,40
2018-06-19,0,35
2018-06-20,0,44
2018-06-21,2,38
2018-06-22,0,36
2018-06-23,0,41
2018-06-24,0,36
2018-06-25,0,43
2018-06-26,1,43
2018-06-27,0,41
2018-06-28,0,38
2018-06-29,0,35
2018-06-30,0,43
2018-07-01,0,40
2018-07-02,0,46
2018-07-03,0,43
2018-07-04,1,45
2018-07-05,1,40
2018-07-06,0,44
2018-07-07,1,45
2018-07-08,1,43
2018-07-09,0,40
2018-07-10,0,36
2018-07-11,0,52
2018-07-12,0,38
2018-07-13,0,49
2018-07-14,0,40
2018-07-15,0,39
2018-07-16,2,41
2018-07-17,3,45
2018-07-18,2,40
2018-07-19,3,45
2018-07-20,1,47
2018-07-21,3,38
2018-07-22,3,39
2018-07-23,1,57
2018-07-24,1,48
2018-07-25,1,44
2018-07-26,1,47
2018-07-27,2,42
2018-07-28,3,35
2018-07-29,2,39
2018-07-30,2,40
2018-07-31,0,47
2018-08-01,0,43
2018-08-02,1,44
2018-08-03,2,44
2018-08-04,2,39
2018-08-05,2,47
2018-08-06,0,56
2018-08-07,1,46
2018-08-08,0,50
2018-08-09,0,46
2018-08-10,0,43
2018-08-11,1,33
2018-08-12,0,35
2018-08-13,0,46
2018-08-14,2,51
2018-08-15,0,37
2018-08-16,1,49
2018-08-17,1,43
2018-08-18,2,39
2018-08-19,1,38
2018-08-20,0,47
2018-08-21,1,49
2018-08-22,1,48
2018-08-23,2,42
2018-08-24,1,47
2018-08-25,0,41
2018-08-26,0,48
2018-08-27,0,48
2018-08-28,1,46
2018-08-29,0,44
2018-08-30,0,46
2018-08-31,1,50
2018-09-01,3,38
2018-09-02,1,43
2018-09-03,0,51
2018-09-04,0,41
2018-09-05,1,44
2018-09-06,0,51
2018-09-07,1,49
2018-09-08,3,48
2018-09-09,0,45
2018-09-10,1,54
2018-09-11,0,47
2018-09-12,0,45
2018-09-13,0,52
2018-09-14,0,35
2018-09-15,0,45
2018-09-16,2,38
2018-09-17,0,44
2018-09-18,0,43
2018-09-19,0,44
2018-09-20,1,48
2018-09-21,1,54
2018-09-22,2,41
2018-09-23,3,54
2018-09-24,2,52
2018-09-25,0,58
2018-09-26,1,50
2018-09-27,1,55
2018-09-28,0,39
2018-09-29,1,57
2018-09-30,1,40
2018-10-01,0,55
2018-10-02,0,47
2018-10-03,1,52
2018-10-04,1,50
2018-10-05,0,54
2018-10-06,2,44
2018-10-07,0,46
2018-10-08,1,49
2018-10-09,0,50
2018-10-10,0,53
2018-10-11,1,41
2018-10-12,1,56
2018-10-13,0,46
2018-10-14,0,47
2018-10-15,3,46
2018-10-16,2,43
2018-10-17,2,42
2018-10-18,1,57
2018-10-19,1,46
2018-10-20,1,54
2018-10-21,1,46
2018-10-22,0,44
2018-10-23,1,53
2018-10-24,0,51
2018-10-25,0,61
2018-10-26,1,53
2018-10-27,0,44
2018-10-28,0,49
2018-10-29,0,59
2018-10-30,0,56
2018-10-31,0,49
2018-11-01,0,61
2018-11-02,0,51
2018-11-03,0,46
2018-11-04,3,51
2018-11-05,1,45
2018-11-06,0,56
2018-11-07,0,57
2018-11-08,1,36
2018-11-09,1,53
2018-11-10,0,47
2018-11-11,0,48
2018-11-12,0,47
2018-11-13,1,62
2018-11-14,0,48
2018-11-15,1,46
2018-11-16,2,50
2018-11-17,0,50
2018-11-18,0,38
2018-11-19,2,48
2018-11-20,0,52
2018-11-21,0,54
2018-11-22,0,49
2018-11-23,1,49
2018-11-24,1,52
2018-11-25,1,48
2018-11-26,1,54
2018-11-27,0,48
2018-11-28,0,61
2018-11-29,0,53
2018-11-30,0,52
2018-12-01,0,54
2018-12-02,0,51
2018-12-03,1,55
2018-12-04,0,52
2018-12-05,0,47
2018-12-06,0,58
2018-12-07,1,56
2018-12-08,0,52
2018-12-09,0,52
2018-12-10,0,57
2018-12-11,0,47
2018-12-12,1,48
2018-12-13,0,55
2018-12-14,2,56
2018-12-15,0,45
2018-12-16,1,51
2018-12-17,1,48
2018-12-18,2,57
2018-12-19,0,55
2018-12-20,0,50
2018-12-21,0,54
2018-12-22,2,37
2018-12-23,1,46
2018-12-24,0,52
2018-12-25,1,44
2018-12-26,1,49
2018-12-27,3,56
2018-12-28,1,53
2018-12-29,0,48
2018-12-30,0,45
2018-12-31,0,54
2019-01-01,1,40
2019-01-02,0,56
2019-01-03,2,57
2019-01-04,0,49
2019-01-05,0,43
2019-01-06,2,46
2019-01-07,1,41
2019-01-08,2,55
2019-01-09,1,54
2019-01-10,0,53
2019-01-11,0,64
2019-01-12,1,47
2019-01-13,0,43
2019-01-14,0,46
2019-01-15,1,49
2019-01-16,0,55
2019-01-17,0,50
2019-01-18,0,49
2019-01-19,0,42
2019-01-20,0,41
2019-01-21,0,48
2019-01-22,2,55
2019-01-23,0,56
2019-01-24,1,55
2019-01-25,2,52
2019-01-26,0,46
2019-01-27,3,54
2019-01-28,1,46
2019-01-29,0,55
2019-01-30,0,65
2019-01-31,1,54
2019-02-01,1,53
2019-02-02,0,51
2019-02-03,1,57
2019-02-04,1,43
2019-02-05,0,50
2019-02-06,0,57
2019-02-07,0,46
2019-02-08,2,50
2019-02-09,2,45
2019-02-10,0,55
2019-02-11,0,50
2019-02-12,2,54
2019-02-13,1,50
2019-02-14,0,45
2019-02-15,0,51
2019-02-16,3,44
2019-02-17,2,50
2019-02-18,0,49
2019-02-19,1,50
2019-02-20,0,49
2019-02-21,1,53
2019-02-22,1,48
2019-02-23,1,52
2019-02-24,1,42
2019-02-25,1,57
2019-02-26,1,43
2019-02-27,2,46
2019-02-28,3,50
2019-03-01,3,52
2019-03-02,2,50
2019-03-03,2,46
2019-03-04,1,44
2019-03-05,1,51
2019-03-06,3,61
2019-03-07,3,44
2019-03-08,1,51
2019-03-09,1,50
2019-03-10,1,49
2019-03-11,0,55
2019-03-12,0,49
2019-03-13,0,58
2019-03-14,0,62
2019-03-15,0,44
2019-03-16,1,54
2019-03-17,0,50
2019-03-18,1,54
2019-03-19,0,54
2019-03-20,1,52
2019-03-21,0,57
2019-03-22,1,48
2019-03-23,2,56
2019-03-24,0,48
2019-03-25,0,58
2019-03-26,0,55
2019-03-27,0,58
2019-03-28,0,44
2019-03-29,2,60
2019-03-30,0,50
2019-03-31,0,57
2019-04-01,0,49
2019-04-02,0,50
2019-04-03,0,54
2019-04-04,1,58
2019-04-05,1,47
2019-04-06,2,51
2019-04-07,2,56
2019-04-08,0,54
2019-04-09,0,59
2019-04-10,1,60
2019-04-11,2,64
2019-04-12,2,54
2019-04-13,1,51
2019-04-14,0,52
2019-04-15,1,56
2019-04-16,0,59
2019-04-17,0,55
2019-04-18,1,59
2019-04-19,0,57
2019-04-20,0,53
2019-04-21,0,60
2019-04-22,1,55
2019-04-23,1,62
2019-04-24,0,57
2019-04-25,1,52
2019-04-26,0,70
2019-04-27,1,46
2019-04-28,0,48
2019-04-29,0,56
2019-04-30,1,56
2019-05-01,1,56
2019-05-02,2,65
2019-05-03,1,65
2019-05-04,0,53
2019-05-05,0,53
2019-05-06,0,60
2019-05-07,0,63
2019-05-08,1,63
2019-05-09,0,58
2019-05-10,0,58
2019-05-11,0,54
2019-05-12,1,58
2019-05-13,1,55
2019-05-14,0,55
2019-05-15,0,62
2019-05-16,0,60
2019-05-17,1,58
2019-05-18,0,63
2019-05-19,1,56
2019-05-20,1,56
2019-05-21,0,51
2019-05-22,1,53
2019-05-23,2,57
2019-05-24,1,59
2019-05-25,0,55
2019-05-26,0,59
2019-05-27,0,47
2019-05-28,0,64
2019-05-29,2,51
2019-05-30,2,59
2019-05-31,0,51
2019-06-01,0,53
2019-06-02,1,57
2019-06-03,0,54
2019-06-04,0,60
2019-06-05,1,55
2019-06-06,1,53
2019-06-07,1,53
2019-06-08,0,51
2019-06-09,0,52
2019-06-10,0,58
2019-06-11,0,53
2019-06-12,0,56
2019-06-13,0,48
2019-06-14,0,53
2019-06-15,0,55
2019-06-16,3,43
2019-06-17,1,41
2019-06-18,1,46
2019-06-19,2,42
2019-06-20,1,50
2019-06-21,0,42
2019-06-22,1,44
2019-06-23,0,42
2019-06-24,1,50
2019-06-25,2,42
2019-06-26,2,48
2019-06-27,0,38
2019-06-28,2,47
2019-06-29,1,42
2019-06-30,2,42
2019-07-01,3,47
2019-07-02,1,38
2019-07-03,0,44
2019-07-04,1,52
2019-07-05,0,44
2019-07-06,1,38
2019-07-07,0,39
2019-07-08,3,44
2019-07-09,1,39
2019-07-10,0,56
2019-07-11,1,42
2019-07-12,0,45
2019-07-13,0,50
2019-07-14,0,45
2019-07-15,1,48
2019-07-16,0,55
2019-07-17,0,46
2019-07-18,0,39
2019-07-19,1,44
2019-07-20,1,35
2019-07-21,0,44
2019-07-22,0,51
2019-07-23,1,48
2019-07-24,3,42
2019-07-25,2,48
2019-07-26,3,43
2019-07-27,2,44
2019-07-28,3,41
2019-07-29,3,47
2019-07-30,0,42
2019-07-31,0,40
2019-08-01,1,39
2019-08-02,2,51
2019-08-03,1,40
2019-08-04,1,48
2019-08-05,1,47
2019-08-06,0,40
2019-08-07,1,53
2019-08-08,1,54
2019-08-09,4,44
2019-08-10,1,48
2019-08-11,0,50
2019-08-12,0,37
2019-08-13,3,51
2019-08-14,2,47
2019-08-15,1,50
2019-08-16,0,41
2019-08-17,1,48
2019-08-18,2,44
2019-08-19,0,43
2019-08-20,0,45
2019-08-21,2,44
2019-08-22,1,46
2019-08-23,2,48
2019-08-24,2,45
2019-08-25,2,55
2019-08-26,0,39
2019-08-27,0,44
2019-08-28,0,49
2019-08-29,0,46
2019-08-30,0,38
2019-08-31,0,48
2019-09-01,1,42
2019-09-02,0,45
2019-09-03,0,45
2019-09-04,1,44
2019-09-05,0,42
2019-09-06,0,44
2019-09-07,0,40
2019-09-08,2,43
2019-09-09,2,47
2019-09-10,2,39
2019-09-11,2,44
2019-09-12,1,44
2019-09-13,0,44
2019-09-14,0,44
2019-09-15,0,35
2019-09-16,0,43
2019-09-17,1,41
2019-09-18,0,47
2019-09-19,1,48
2019-09-20,2,45
2019-09-21,1,47
2019-09-22,1,38
2019-09-23,0,50
2019-09-24,1,46
2019-09-25,0,48
2019-09-26,1,51
2019-09-27,0,48
2019-09-28,1,49
2019-09-29,1,55
2019-09-30,1,50
2019-10-01,0,55
2019-10-02,3,41
2019-10-03,1,48
2019-10-04,0,48
2019-10-05,1,49
2019-10-06,1,42
2019-10-07,0,45
2019-10-08,4,45
2019-10-09,1,48
2019-10-10,1,50
2019-10-11,0,50
2019-10-12,3,48
2019-10-13,0,53
2019-10-14,0,44
2019-10-15,0,48
2019-10-16,1,49
2019-10-17,1,46
2019-10-18,1,49
2019-10-19,3,48
2019-10-20,1,44
2019-10-21,1,59
2019-10-22,1,53
2019-10-23,1,56
2019-10-24,0,44
2019-10-25,0,55
2019-10-26,0,47
2019-10-27,1,50
2019-10-28,0,58
2019-10-29,0,44
2019-10-30,0,50
2019-10-31,0,50
2019-11-01,1,50
2019-11-02,2,48
2019-11-03,0,45
2019-11-04,0,53
2019-11-05,1,48
2019-11-06,1,56
2019-11-07,1,44
2019-11-08,0,61
2019-11-09,3,45
2019-11-10,2,55
2019-11-11,2,51
2019-11-12,0,60
2019-11-13,0,48
2019-11-14,1,55
2019-11-15,2,47
2019-11-16,1,46
2019-11-17,0,43
2019-11-18,0,40
2019-11-19,1,56
2019-11-20,0,44
2019-11-21,1,46
2019-11-22,1,63
2019-11-23,2,52
2019-11-24,2,62
2019-11-25,0,54
2019-11-26,1,57
2019-11-27,0,51
2019-11-28,2,50
2019-11-29,2,47
2019-11-30,2,51
2019-12-01,2,54
2019-12-02,2,63
2019-12-03,0,54
2019-12-04,2,61
2019-12-05,0,56
2019-12-06,0,58
2019-12-07,3,50
2019-12-08,2,74
2019-12-09,2,63
2019-12-10,1,54
2019-12-11,1,67
2019-12-12,1,61
2019-12-13,1,63
2019-12-14,1,62
2019-12-15,2,60
2019-12-16,2,59
2019-12-17,1,69
2019-12-18,1,65
2019-12-19,0,66
2019-12-20,1,57
2019-12-21,1,68
2019-12-22,0,60
2019-12-23,1,61
2019-12-24,1,55
2019-12-25,1,55
2019-12-26,0,62
2019-12-27,0,59
2019-12-28,2,52
2019-12-29,1,63
2019-12-30,2,57
2019-12-31,2,46
2020-01-01,2,64
2020-01-02,2,60
2020-01-03,1,57
2020-01-04,1,52
2020-01-05,2,64
2020-01-06,0,65
2020-01-07,1,60
2020-01-08,1,69
2020-01-09,2,57
2020-01-10,1,69
2020-01-11,0,62
2020-01-12,0,59
2020-01-13,2,62
2020-01-14,2,70
2020-01-15,0,70
2020-01-16,1,56
2020-01-17,0,55
2020-01-18,1,57
2020-01-19,1,65
2020-01-20,1,60
2020-01-21,1,58
2020-01-22,2,60
2020-01-23,0,74
2020-01-24,2,57
2020-01-25,2,66
2020-01-26,1,68
2020-01-27,1,64
2020-01-28,2,75
2020-01-29,1,60
2020-01-30,0,62
2020-01-31,2,65
2020-02-01,3,63
2020-02-02,2,64
2020-02-03,0,65
2020-02-04,1,64
2020-02-05,0,64
2020-02-06,1,65
2020-02-07,8,68
2020-02-08,1,34
2020-02-09,2,48
2020-02-10,1,70
2020-02-11,0,70
2020-02-12,2,70
2020-02-13,0,73
2020-02-14,1,63
2020-02-15,3,69
2020-02-16,2,66
2020-02-17,5,71
2020-02-18,2,64
2020-02-19,2,80
2020-02-20,1,61
2020-02-21,0,71
2020-02-22,2,68
2020-02-23,1,78
2020-02-24,4,69
2020-02-25,1,83
2020-02-26,3,77
2020-02-27,2,75
2020-02-28,2,56
2020-02-29,2,76
2020-03-01,1,61
2020-03-02,3,66
2020-03-03,2,78
2020-03-04,2,78
2020-03-05,3,78
2020-03-06,1,68
2020-03-07,1,75
2020-03-08,2,81
2020-03-09,0,55
2020-03-10,1,73
2020-03-11,1,76
2020-03-12,1,68
2020-03-13,1,73
2020-03-14,1,75
2020-03-15,0,71
2020-03-16,3,78
2020-03-17,2,75
2020-03-18,0,71
2020-03-19,3,64
2020-03-20,1,76
2020-03-21,0,77
2020-03-22,1,76
2020-03-23,0,77
2020-03-24,1,74
2020-03-25,1,74
2020-03-26,1,63
2020-03-27,1,82
2020-03-28,2,67
2020-03-29,2,66
2020-03-30,2,78
2020-03-31,1,65
2020-04-01,0,74
2020-04-02,0,66
2020-04-03,1,80
2020-04-04,1,67
2020-04-05,0,68
2020-04-06,1,67
2020-04-07,1,76
2020-04-08,1,74
2020-04-09,3,74
2020-04-10,1,69
2020-04-11,1,78
2020-04-12,3,77
2020-04-13,3,74
2020-04-14,2,71
2020-04-15,4,74
2020-04-16,0,81
2020-04-17,0,75
2020-04-18,1,72
2020-04-19,0,74
2020-04-20,0,77
2020-04-21,1,69
2020-04-22,1,73
2020-04-23,0,81
2020-04-24,2,79
2020-04-25,0,77
2020-04-26,1,82
2020-04-27,1,72
2020-04-28,0,66
2020-04-29,0,71
2020-04-30,0,74
2020-05-01,1,71
2020-05-02,4,81
2020-05-03,3,73
2020-05-04,0,76
2020-05-05,1,80
2020-05-06,1,82
2020-05-07,3,73
2020-05-08,2,78
2020-05-09,2,75
2020-05-10,2,70
2020-05-11,2,76
2020-05-12,0,74
2020-05-13,0,71
2020-05-14,1,80
2020-05-15,1,76
2020-05-16,1,76
2020-05-17,0,86
2020-05-18,0,72
2020-05-19,0,79
2020-05-20,1,74
2020-05-21,0,77
2020-05-22,2,69
2020-05-23,0,74
2020-05-24,2,79
2020-05-25,1,83
2020-05-26,1,75
2020-05-27,0,91
2020-05-28,1,80
2020-05-29,1,79
2020-05-30,2,77
2020-05-31,1,80
2020-06-01,2,87
2020-06-02,2,81
2020-06-03,1,72
2020-06-04,0,83
2020-06-05,2,76
2020-06-06,1,83
2020-06-07,0,80
2020-06-08,2,71
2020-06-09,0,82
2020-06-10,1,75
2020-06-11,2,84
2020-06-12,1,67
2020-06-13,2,88
2020-06-14,1,79
2020-06-15,1,73
2020-06-16,1,67
2020-06-17,3,80
2020-06-18,0,80
2020-06-19,0,78
2020-06-20,2,89
2020-06-21,0,78
2020-06-22,3,69
2020-06-23,4,76
2020-06-24,1,79
2020-06-25,0,86
2020-06-26,1,71
2020-06-27,0,75
2020-06-28,0,77
2020-06-29,0,76
2020-06-30,1,82
2020-07-01,0,75
2020-07-02,0,82
2020-07-03,1,78
2020-07-04,1,81
2020-07-05,0,69
2020-07-06,0,74
2020-07-07,0,75
2020-07-08,1,76
2020-07-09,0,68
2020-07-10,0,67
2020-07-11,2,84
2020-07-12,2,58
2020-07-13,1,76
2020-07-14,0,69
2020-07-15,2,78
2020-07-16,1,69
2020-07-17,0,77
2020-07-18,3,74
2020-07-19,0,72
2020-07-20,1,73
2020-07-21,0,80
2020-07-22,1,79
2020-07-23,0,75
2020-07-24,2,75
2020-07-25,2,76
2020-07-26,0,70
2020-07-27,1,75
2020-07-28,3,74
2020-07-29,1,86
2020-07-30,1,72
2020-07-31,1,80
2020-08-01,4,83
2020-08-02,1,82
2020-08-03,0,83
2020-08-04,3,70
2020-08-05,0,75
2020-08-06,1,75
2020-08-07,2,76
2020-08-08,1,76
2020-08-09,3,77
2020-08-10,1,73
2020-08-11,2,75
2020-08-12,1,73
2020-08-13,0,71
2020-08-14,5,90
2020-08-15,2,75
2020-08-16,0,70
2020-08-17,0,81
2020-08-18,1,70
2020-08-19,0,76
2020-08-20,2,76
2020-08-21,2,78
2020-08-22,1,76
2020-08-23,1,94
2020-08-24,1,74
2020-08-25,1,89
2020-08-26,2,81
2020-08-27,0,81
2020-08-28,0,81
2020-08-29,3,77
2020-08-30,1,75
2020-08-31,0,80
2020-09-01,2,76
2020-09-02,4,83
2020-09-03,0,76
2020-09-04,6,85
2020-09-05,2,76
2020-09-06,1,80
2020-09-07,1,81
2020-09-08,0,75
2020-09-09,0,95
2020-09-10,2,77
2020-09-11,0,83
2020-09-12,0,89
2020-09-13,2,82
2020-09-14,3,76
2020-09-15,1,84
2020-09-16,1,81
2020-09-17,2,95
2020-09-18,4,80
2020-09-19,1,88
2020-09-20,3,83
2020-09-21,2,88
2020-09-22,0,77
2020-09-23,0,81
2020-09-24,1,87
2020-09-25,1,82
2020-09-26,2,82
2020-09-27,4,83
2020-09-28,0,80
2020-09-29,1,85
2020-09-30,2,78
2020-10-01,2,81
2020-10-02,3,76
2020-10-03,2,85
2020-10-04,2,82
2020-10-05,1,84
2020-10-06,0,79
2020-10-07,1,71
2020-10-08,1,78
2020-10-09,2,77
2020-10-10,1,87
2020-10-11,4,79
2020-10-12,8,90
2020-10-13,4,83
2020-10-14,7,75
2020-10-15,3,88
2020-10-16,7,92
2020-10-17,5,85
2020-10-18,3,84
2020-10-19,7,87
2020-10-20,1,91
2020-10-21,2,80
2020-10-22,1,88
2020-10-23,4,97
2020-10-24,1,101
2020-10-25,0,98
2020-10-26,1,104
2020-10-27,0,98
2020-10-28,5,107
2020-10-29,5,91
2020-10-30,4,87
2020-10-31,0,98
2020-11-01,3,101
2020-11-02,3,97
2020-11-03,1,93
2020-11-04,2,93
2020-11-05,0,99
2020-11-06,2,97
2020-11-07,2,99
2020-11-08,3,94
2020-11-09,4,97
2020-11-10,2,96